Regional Weather Roundup
Issued by NWS

Home | Current Version | Previous Version | Text Only | Print | Product List | Glossary On
Versions: 1 2 3 4 5 6 7 8 9 10 11 12 13 14 15 16 17 18 19 20 21 22 23 24 25 26 27 28 29 30 31 32 33 34 35 36 37 38 39 40 41 42 43 44 45 46 47 48 49 50
000
ASUS43 KLMK 270002
RWRKY
KENTUCKY REGIONAL WEATHER ROUNDUP
NATIONAL WEATHER SERVICE LOUISVILLE KY
800 PM EDT SUN APR 26 2015

NOTE "FAIR" INDICATES FEW OR NO CLOUDS BELOW 12,000 FEET
WITH NO SIGNIFICANT WEATHER AND/OR OBSTRUCTIONS TO VISIBILITY.

KYZ001>023-026-027-061>063-070>075-270100-
WESTERN AND SOUTH CENTRAL KENTUCKY

CITY           SKY/WX    TMP DP  RH WIND       PRES   REMARKS
PADUCAH        CLEAR     61  37  41 N10       29.88R
HENDERSON      CLEAR     61  36  39 N7        29.88R
OWENSBORO      CLEAR     62  37  39 N7        29.87R
HOPKINSVILLE   CLEAR     58  47  67 N6        29.86R
BOWLING GREEN  CLEAR     62  40  44 N5        29.85R
GLASGOW        NOT AVBL
$$

KYZ024-025-028>034-038-045-046-053-270100-
NORTH CENTRAL KENTUCKY

CITY           SKY/WX    TMP DP  RH WIND       PRES   REMARKS
LOUISVILLE/SDF CLEAR     60  35  39 N16       29.86R
LOUISVILLE/LOU CLEAR     59  34  39 N12G18    29.87R
FORT KNOX      CLEAR     58  36  44 N7        29.85R
$$

KYZ035>037-039>044-047>052-055>060-089>105-270100-
NORTHEAST KENTUCKY

CITY           SKY/WX    TMP DP  RH WIND       PRES   REMARKS
LEXINGTON      CLEAR     56  34  43 N9        29.84R
COVINGTON      PTCLDY    55  34  45 N16       29.87R
FRANKFORT      CLEAR     59  32  36 N8        29.84R
$$

KYZ054-064>069-076>088-106>120-270100-
SOUTHEAST KENTUCKY

CITY           SKY/WX    TMP DP  RH WIND       PRES   REMARKS
JACKSON        CLEAR     57  34  41 VRB5      29.80R
LONDON         PTCLDY    58  36  43 NW6       29.81R
SOMERSET       NOT AVBL
MIDDLESBORO    CLOUDY    55  47  74 CALM      29.82R
MONTICELLO     PTCLDY    57  43  59 CALM      29.86R
$$




USA.gov is the U.S. government's official web portal to all federal, state and local government web resources and services.